FW7163 Weather Reports


Display with metric or nautical units.
time (UTC)temp
F
wind
direction
speed
MPH
gust
MPH
rain 1hr
in
rain 24hr
in
rain mn
in
humidity
%
barometer
mb
20260906210033 85 130 19.0 30.0 0.00 0.05 0.05 56 1006.8
20260906204530 85 135 22.0 30.0 0.00 0.05 0.05 57 1007.0
20260906203030 84 142 19.0 30.0 0.00 0.05 0.05 56 1007.3
20260906201529 86 125 18.0 24.0 0.00 0.05 0.05 52 1007.6
20260906200029 86 125 16.0 23.0 0.00 0.05 0.05 54 1007.5
20260906194528 85 159 14.0 20.0 0.00 0.05 0.05 54 1007.3
20260906193027 87 144 12.0 16.0 0.00 0.05 0.05 48 1006.9
20260906191527 89 186 8.0 14.0 0.00 0.05 0.05 42 1006.7
20260906190022 87 85 2.0 7.0 0.00 0.05 0.05 47 1006.6
20260906184519 86 39 3.0 8.0 0.00 0.05 0.05 45 1006.5
20260906183017 84 9 2.0 6.0 0.00 0.05 0.05 50 1006.4
20260906181510 83 132 2.0 7.0 0.00 0.05 0.05 54 1006.3
20260906180006 80 133 4.0 11.0 0.00 0.05 0.05 54 1006.4
20260906174507 77 124 12.0 16.0 0.00 0.05 0.05 63 1006.4
20260906173108 72 130 9.0 14.0 0.00 0.05 0.05 70 1006.8
20260906171559 73 126 12.0 16.0 0.01 0.05 0.05 66 1006.7
20260906170117 71 130 11.0 26.0 0.02 0.05 0.05 72 1006.8
20260906164552 70 113 16.0 28.0 0.04 0.05 0.05 75 1006.9
20260906163049 68 93 18.0 21.0 0.04 0.05 0.05 84 1008.1
20260906161547 69 201 7.0 14.0 0.03 0.04 0.04 85 1011.1
20260906160045 69 208 9.0 19.0 0.03 0.03 0.03 91 1010.8
20260906154545 68 199 16.0 23.0 0.01 0.01 0.01 92 1010.8
20260906153042 68 225 15.0 26.0 0.01 0.01 0.01 91 1010.6
20260906151542 69 171 13.0 27.0 0.01 0.01 0.01 83 1009.4
20260906150040 66 13 14.0 22.0 0.00 0.00 0.00 95 1008.3
20260906144541 66 275 2.0 4.0 0.00 0.00 0.00 95 1010.3
20260906143041 66 277 2.0 5.0 0.00 0.00 0.00 95 1010.4
20260906141538 66 269 2.0 4.0 0.00 0.00 0.00 95 1010.4
20260906140038 66 269 3.0 6.0 0.00 0.00 0.00 95 1010.2
20260906134540 65 161 2.0 8.0 0.00 0.00 0.00 95 1009.8
20260906133031 65 148 5.0 10.0 0.00 0.00 0.00 95 1009.3
20260906131531 66 151 4.0 7.0 0.00 0.00 0.00 95 1009.4
20260906130030 65 66 3.0 5.0 0.00 0.00 0.00 96 1009.2
20260906124539 63 59 5.0 9.0 0.00 0.00 0.00 95 1008.7
20260906123058 63 72 5.0 8.0 0.00 0.00 0.00 94 1008.7
20260906121526 63 125 4.0 7.0 0.00 0.00 0.00 95 1008.7
20260906120025 63 125 4.0 6.0 0.00 0.00 0.00 94 1008.8
20260906114524 63 126 0.0 3.0 0.00 0.00 0.00 94 1008.7
20260906113023 63 126 3.0 5.0 0.00 0.00 0.00 93 1008.7
20260906111528 64 101 3.0 8.0 0.00 0.00 0.00 94 1008.7
20260906110019 64 94 7.0 11.0 0.00 0.00 0.00 94 1008.4
20260906104518 65 99 7.0 10.0 0.00 0.00 0.00 93 1008.4
20260906103017 65 98 7.0 11.0 0.00 0.00 0.00 93 1008.3
20260906101514 65 105 8.0 13.0 0.00 0.00 0.00 94 1008.2
20260906100012 65 118 7.0 12.0 0.00 0.00 0.00 93 1008.1
20260906094509 65 117 8.0 11.0 0.00 0.00 0.00 93 1008.3
20260906093007 65 121 7.0 10.0 0.00 0.00 0.00 93 1008.2
20260906091505 65 114 6.0 10.0 0.00 0.00 0.00 93 1008.3
20260906090006 66 111 7.0 11.0 0.00 0.00 0.00 93 1008.3
20260906084605 66 98 9.0 13.0 0.00 0.00 0.00 93 1008.4
20260906083057 66 105 8.0 11.0 0.00 0.00 0.00 92 1008.5
20260906081557 66 103 7.0 9.0 0.00 0.00 0.00 92 1008.5
20260906080053 66 96 4.0 7.0 0.00 0.00 0.00 92 1008.6
20260906074552 67 99 4.0 7.0 0.00 0.00 0.00 91 1008.7
20260906073049 67 97 5.0 8.0 0.00 0.00 0.00 91 1008.9
20260906071546 67 81 5.0 7.0 0.00 0.00 0.00 90 1008.8
20260906070043 68 76 5.0 9.0 0.00 0.00 0.00 89 1008.8
20260906064540 68 65 5.0 9.0 0.00 0.00 0.00 88 1008.9
20260906063037 69 77 6.0 11.0 0.00 0.00 0.00 87 1008.7
20260906061536 70 111 7.0 12.0 0.00 0.00 0.00 87 1008.7
20260906060035 70 112 10.0 14.0 0.00 0.00 0.00 87 1008.7
20260906054540 70 111 11.0 15.0 0.00 0.00 0.00 87 1008.7
20260906053031 70 120 11.0 16.0 0.00 0.00 0.00 87 1008.6
20260906051529 70 108 12.0 17.0 0.00 0.00 0.00 87 1008.4
20260906050026 71 122 12.0 17.0 0.00 0.00 0.00 86 1008.6
20260906044523 71 108 12.0 16.0 0.00 0.00 0.00 86 1008.2
20260906043029 71 118 13.0 18.0 0.00 0.00 0.00 86 1008.2
20260906041521 71 98 12.0 18.0 0.00 0.00 0.00 86 1008.0
20260906040020 71 118 11.0 15.0 0.00 0.00 0.00 86 1008.1
20260906034519 71 98 11.0 16.0 0.00 0.00 0.00 86 1008.1
20260906033023 71 94 10.0 14.0 0.00 0.00 0.00 86 1008.0
20260906031517 72 75 10.0 14.0 0.00 0.00 0.00 85 1007.8
20260906030020 72 81 9.0 16.0 0.00 0.00 0.00 84 1007.8
20260906024514 73 80 11.0 14.0 0.00 0.00 0.00 83 1007.6
20260906023013 73 73 10.0 16.0 0.00 0.00 0.00 83 1007.5
20260906021512 73 61 10.0 14.0 0.00 0.00 0.00 82 1007.5
20260906020011 74 68 10.0 17.0 0.00 0.00 0.00 80 1007.4
20260906014508 74 73 10.0 16.0 0.00 0.00 0.00 79 1007.5
20260906013007 75 84 12.0 22.0 0.00 0.00 0.00 77 1007.3
20260906011506 77 81 12.0 19.0 0.00 0.00 0.00 75 1007.5
20260906010006 78 63 14.0 19.0 0.00 0.00 0.00 72 1007.1
20260906004504 80 83 16.0 23.0 0.00 0.00 0.00 69 1006.9
20260906003004 81 81 14.0 23.0 0.00 0.00 0.00 67 1006.7
20260906001510 82 96 17.0 25.0 0.00 0.00 0.00 65 1006.6
20260906000007 83 82 13.0 22.0 0.00 0.00 0.00 64 1006.4
20260905234503 84 92 14.0 26.0 0.00 0.00 0.00 62 1006.3
20260905233202 85 95 13.0 22.0 0.00 0.00 0.00 61 1006.0
20260905231600 85 84 15.0 22.0 0.00 0.00 0.00 60 1005.7
20260905230059 86 95 15.0 20.0 0.00 0.00 0.00 57 1005.5
20260905224558 87 94 15.0 23.0 0.00 0.00 0.00 57 1005.6
20260905223057 87 97 14.0 21.0 0.00 0.00 0.00 57 1005.7
20260905221557 87 81 15.0 21.0 0.00 0.00 0.00 57 1005.7
20260905220059 88 104 14.0 20.0 0.00 0.00 0.00 55 1005.8
20260905214655 88 72 13.0 20.0 0.00 0.00 0.00 54 1005.7
20260905213054 88 80 12.0 21.0 0.00 0.00 0.00 53 1005.6
20260905211556 88 96 16.0 25.0 0.00 0.00 0.00 54 1005.7